Location: Fontevrault
(47.1823°N, 0.0493°E)
Time: 13:26:54
(UTC+00:00)

Cosmos 1980 - Pass Details

Date: 16 June 2021
Orbit: 839 x 847 km, 71.0° (Epoch: 30 July)

Event Time Altitude Azimuth Distance (km) Brightness Sun altitude
Exits shadow 22:50:16 29° 147° (SSE) 1,509 4.5 -17.7°
Maximum altitude 22:52:15 38° 107° (ESE) 1,274 4.4 -17.8°
Drops below altitude 10° 22:57:26 10° 41° (NE) 2,480 6.6 -18.0°
Sets 23:00:02 0° 33° (NNE) 3,420 7.5 -18.1°
